AirNav   Everest Fuels
 
 890 users online  

81NC Cox Field Airport
Tabor City, North Carolina, USA

GOING TO TABOR CITY?


FAA INFORMATION EFFECTIVE 08 OCTOBER 2020

Location

FAA Identifier: 81NC
Lat/Long: 34-02-27.0000N 078-44-24.0000W
34-02.450000N 078-44.400000W
34.0408333,-78.7400000
(estimated)
Elevation: 50 ft. / 15 m
From city: 10 miles SE of TABOR CITY, NC
Time zone: UTC -4 (UTC -5 during Standard Time)
Zip code: 28455

Airport Operations

Airport use: Private use. Permission required prior to landing
Activation date: 08/2008
Control tower: no
ARTCC: JACKSONVILLE CENTER
FSS: RALEIGH FLIGHT SERVICE STATION
Attendance: UNATNDD
Wind indicator: yes
Segmented circle: no

Airport Communications

WX ASOS at CRE (14 nm S): 119.625 (843-361-2802)
WX AWOS-3 at CPC (14 nm N): 118.375 (910-642-7508)

Nearby radio navigation aids

VOR radial/distance  VOR name  Freq  Var
CREr360/13.6GRAND STRAND VORTAC114.4003W

 
NDB name  Hdg/Dist  Freq  Var  ID
CAMP193/14.022707WCPC -.-. .--. -.-.
HORRY064/23.337008WHYW .... -.-- .--
ELIZABETHTOWN209/31.339808WTGQ - --. --.-
ROBESON163/37.935908WRSY .-. ... -.--
CAROLINA BEACH273/38.921609WCLB -.-. .-.. -...
DILLON137/39.727409WDLC -.. .-.. -.-.

Airport Services

Runway Information

Runway 4/22

Dimensions: 3300 x 50 ft. / 1006 x 15 m
Surface: turf/gravel, in good condition
RUNWAY 4  RUNWAY 22
Traffic pattern: leftleft

Airport Ownership and Management from official FAA records

Ownership: Privately-owned
Owner: WILLIAM C. COX II
6952 RAMSEY FORD ROAD
TABOR CITY, NC 28463
Phone 910-840-9154
Manager: WILLIAM C. COX II
6952 RAMSEY FORD ROAD
TABOR CITY, NC 28463
Phone 910-840-9154

Airport Operational Statistics

Aircraft based on the field: 3
Single engine airplanes: 2
Helicopters: 1
    

Additional Remarks

FOR CD CTC MYRTLE BEACH APCH AT 843-477-2727 OR 843-477-2704, WHEN APCH CLSD CTC JACKSONVILLE ARTCC AT 904-845-1592.

Instrument Procedures

There are no published instrument procedures at 81NC.

Some nearby airports with instrument procedures:

5J9 - Twin City Airport (7 nm NW)
KCRE - Grand Strand Airport (14 nm S)
KCPC - Columbus County Municipal Airport (14 nm N)
KHYW - Conway-Horry County Airport (23 nm SW)
KMYR - Myrtle Beach International Airport (24 nm SW)
 
Loc | Ops | Rwys | IFR | FBO | Links
Com | Nav | Svcs | Stats | Notes
Aerial photo
No photo
 
Sectional chart

 
Airport distance calculator
Flying to Cox Field Airport? Find the distance to fly.

From to 81NC

Sunrise and sunset
Times for 24-Oct-2020
 Local
(UTC-4)
 Zulu
(UTC)
Morning civil twilight07:0411:04
Sunrise07:2911:29
Sunset18:2922:29
Evening civil twilight18:5422:54

Current date and time
Zulu (UTC)  24-Oct-2020 13:11:11
Local (UTC-4)  24-Oct-2020 09:11:11
 
METAR
KCRE 
14nm S 
241253Z 00000KT 10SM CLR 21/21 A3005 RMK AO1 SLP175 T02110206
KCPC 
14nm N 
241255Z AUTO 00000KT 4SM BR SCT001 18/18 A3007 RMK AO2 T01800177
KHYW 
23nm SW 
241255Z AUTO 00000KT 1/4SM FG OVC002 17/17 A3006 RMK AO2
KMYR 
24nm S 
241256Z 34004KT 10SM CLR 20/20 A3006 RMK AO2 SLP177 T02000200
TAF
KCRE 
14nm S 
241137Z 2412/2512 34002KT 2SM BR FEW090 FM241300 18006KT P6SM FEW100
NOTAMs
Click for the latest NOTAMs
NOTAMs are issued by the DoD/FAA and will open in a separate window not controlled by AirNav.

 

 
 

Would you like to see your business listed on this page?

 If your business provides an interesting product or service to pilots, flight crews, aircraft, or users of the Cox Field Airport, you should consider listing it here.  To start the listing process, click on the button below
 
Add a business
 

Other Pages about Cox Field Airport

Update a link
 
Copyright © AirNav, LLC. All rights reserved. Privacy Policy  Contact